Regional Weather Roundup
Issued by NWS Sioux Falls, SD

Home | Current Version | Previous Version | Text Only | Print | Product List | Glossary Off
Versions: 1 2 3 4 5 6 7 8 9 10 11 12 13 14 15 16 17 18 19 20 21 22 23 24 25 26 27 28 29 30 31 32 33 34 35 36 37 38 39 40 41 42 43 44 45 46 47 48 49 50

000
ASUS43 KFSD 040610
RWRFSD

WEATHER ROUNDUP FOR SE SOUTH DAKOTA/SW MINNESOTA/NW IOWA
NATIONAL WEATHER SERVICE SIOUX FALLS SD
100 AM CDT FRI SEP 04 2015

NOTE: "FAIR" INDICATES FEW OR NO CLOUDS BELOW 12,000 FEET WITH NO
SIGNIFICANT WEATHER AND OR OBSTRUCTIONS TO VISIBILITY.


SDZ038>040-050-052>070-040700-
SOUTHEAST SOUTH DAKOTA

CITY           SKY/WX    TMP DP  RH WIND       PRES   REMARKS
BROOKINGS      PTCLDY    75  70  83 SE14      29.82F
CHAMBERLAIN    MOCLDY    73  70  90 SE8       29.72S
6HR MIN TEMP:  73; 6HR MAX TEMP:  83;

HURON          CLOUDY    76  72  87 SE10      29.72F
6HR MIN TEMP:  76; 6HR MAX TEMP:  86;

MADISON        FAIR      73  73 100 SE12      29.81S
MITCHELL       CLOUDY    78  72  81 SE9       29.74S
6HR MIN TEMP:  77; 6HR MAX TEMP:  85;

SIOUX FALLS    PTCLDY    77  71  82 SE9       29.81R
6HR MIN TEMP:  77; 6HR MAX TEMP:  83;

WINNER         FAIR      79  66  64 S6        29.72S
YANKTON        MOCLDY    77  70  78 SE9       29.76S
$$

MNZ071-072-080-081-089-090-097-098-040700-
SOUTHWEST MINNESOTA

CITY           SKY/WX    TMP DP  RH WIND       PRES   REMARKS
FAIRMONT       PTCLDY    75  66  73 SE8       29.88S
JACKSON        PTCLDY    73  72  94 SE7       29.88S
LUVERNE        PTCLDY    75  72  88 SE6       29.84S
MARSHALL       PTCLDY    73  70  88 SE9       29.84S
6HR MIN TEMP:  73; 6HR MAX TEMP:  86;

MONTEVIDEO     PTCLDY    75  75 100 S7        29.84S
PIPESTONE      PTCLDY    75  72  88 SE10      29.84S
REDWOOD FALLS  CLEAR     76  73  91 SE10      29.84F
TRACY          PTCLDY    75  73  95 SE7       29.85S
WINDOM         PTCLDY    75  72  88 SE7       29.87S
WORTHINGTON    PTCLDY    73  68  83 SE8       29.86S
$$

IAZ001>003-012>014-020>022-031-032-NEZ013-014-SDZ071-040700-
NORTHWEST IOWA

CITY           SKY/WX    TMP DP  RH WIND       PRES   REMARKS
CHEROKEE       MOCLDY    73  72  95 S7        29.85S
DENISON        PTCLDY    75  70  83 S13       29.86R
ESTHERVILLE    PTCLDY    71  70  96 SE6       29.88S
LE MARS        PTCLDY    75  72  88 S7        29.83S
ORANGE CITY    PTCLDY    75  72  88 S6        29.84S
SHELDON        PTCLDY    73  72  94 SE8G14    29.83S
SIOUX CITY     PTCLDY    76  69  79 SE10      29.82R
6HR MIN TEMP:  76; 6HR MAX TEMP:  85;

SPENCER        PTCLDY    74  70  87 SE7       29.87R FOG
6HR MIN TEMP:  74; 6HR MAX TEMP:  84;

STORM LAKE     MOCLDY    72  70  94 S8        29.88S
$$

ABBREVIATIONS USED IN REMARKS
   TC - TEMPERATURE IN CELSIUS
  WCI - WIND CHILL INDEX
   HX - HEAT INDEX
  VSB - VISIBILITY



USA.gov is the U.S. government's official web portal to all federal, state and local government web resources and services.